Regional Weather Roundup
Issued by NWS

Home | Current Version | Previous Version | Text Only | Print | Product List | Glossary Off
Versions: 1 2 3 4 5 6 7 8 9 10 11 12 13 14 15 16 17 18 19 20 21 22 23 24 25 26 27 28 29 30 31 32 33 34 35 36 37 38 39 40 41 42 43 44 45 46 47 48 49 50

000
ASUS43 KTOP 301008
RWRKS

WEATHER ROUNDUP FOR KANSAS
NATIONAL WEATHER SERVICE GOODLAND KS
500 AM CDT SAT AUG 30 2014

NOTE:  "FAIR" INDICATES FEW OR NO CLOUDS BELOW 12,000 FEET WITH NO
SIGNIFICANT WEATHER AND/OR OBSTRUCTIONS TO VISIBILITY.

KSZ001>006-013>018-027>032-041>047-301100-
NORTHWEST KANSAS

CITY           SKY/WX    TMP DP  RH WIND       PRES   REMARKS
GOODLAND       PTCLDY    57  55  93 NW5       30.05S
HAYS           CLEAR     61  54  77 N8        29.98S
HILL CITY      CLEAR     61  59  93 CALM      29.99S
RUSSELL        CLEAR     62  57  83 W5        29.97R
$$

KSZ061>065-074>080-084>089-301100-
SOUTHWEST KANSAS

CITY           SKY/WX    TMP DP  RH WIND       PRES   REMARKS
DODGE CITY     CLEAR     63  53  70 CALM      30.02S
ELKHART          N/A     64  53  67 SW5         N/A
GARDEN CITY    PTCLDY    57  55  93 SW7       30.02S
GREAT BEND     CLEAR     63  55  77 NW6       29.97S
LIBERAL        PTCLDY    61  52  72 NW3       30.05F
PRATT          CLEAR     61  55  82 NW3       29.97F
$$

KSZ066>073-081>083-090>101-301100-
SOUTHEAST KANSAS

CITY           SKY/WX    TMP DP  RH WIND       PRES   REMARKS
CHANUTE        CLEAR     72  69  90 S8        29.91S
COFFEYVILLE    PTCLDY    72  70  93 S6        29.91F
HUTCHINSON     FOG       65  64  97 NW3       29.93S VSB 1/4
MEDICINE LODGE   N/A     62  61  96 N5        29.94S
NEWTON         CLEAR     66  61  82 W5        29.97S
PARSONS        CLEAR     71  68  90 S6        29.93S
WICHITA INTL   CLEAR     67  65  93 CALM      29.92S
WICHITA JABRA  CLEAR     68  65  90 W6        29.92S
WICHITA MCCONL CLEAR     68  68 100 SW3       29.93S
WINFIELD       CLEAR     69  67  93 CALM      29.94R
$$

KSZ007>012-019>026-033>040-048>060-102>105-301100-
NORTHEAST KANSAS

CITY           SKY/WX    TMP DP  RH WIND       PRES   REMARKS
CONCORDIA      CLEAR     65  64  97 N3        29.94R
EMPORIA        CLEAR     67  65  93 SW6       29.91S
LAWRENCE       CLEAR     67  63  87 S3        29.89R
MANHATTAN      CLEAR     64  62  93 CALM      29.92R
MARYSVILLE     CLEAR     63  63 100 CALM      29.92S
OLATHE IND     CLEAR     70  66  87 SW8       29.90S
OLATHE EXE     CLEAR     69  66  90 SW5       29.90R
SALINA         CLEAR     66  61  84 CALM      29.93S
TOPEKA BILLARD CLEAR     70  68  93 CALM      29.89R
TOPEKA FORBES  CLEAR     66  64  93 CALM      29.89S
$$



USA.gov is the U.S. government's official web portal to all federal, state and local government web resources and services.